Date/Time (UTC),PHv2,PWv2,PTv2,PSv3,PHv3,PWv3,PTv3,MESH,VIL,CompRef,Ref -20C,Flash Rate,Max Flash Density,LJA sigma-level,Max 0-2km AzShear,LLAZ 98th%,MLAZ 98th%,MUCAPE,MLCAPE,CAPE -10C to -30C,MLCIN,SRH 0-1km AGL,EBShear,MeanWind 0-1km AGL,Norm. Sat. Growth Rate,ICP,PWAT,WBZ,AvgBeamHgt,STP(eff),DCAPE,ESRH
2022/04/05 18:56,1,2,7,3,0,2,2,0,3,48.5,25,0,0,0,7,4,2,1371,1358,344,0,189,61,36,0,0,1.8,10.9,3.59,1.1,444,233
2022/04/05 18:58,1,2,7,4,0,2,2,0,4,48.5,28,0,0,0,7,4,2,1365,1347,344,0,186,61,36,0,0,1.8,10.9,3.53,1.1,444,233
2022/04/05 19:00,1,2,7,5,0,4,2,0,5,48.5,29,0,0,0,7,4,3,1297,1204,369,0,192,62,42,0,0,1.8,10.8,3.53,1.8,407,300
2022/04/05 19:02,1,2,7,6,0,5,2,0,6,49.5,29,0,0,0,6,4,3,1234,1160,335,0,189,60,42,0,0,1.8,10.8,3.24,1.8,407,300
2022/04/05 19:04,1,2,7,6,0,5,2,0,6,49.5,26,0,0,0,4,4,3,1220,1160,327,0,188,60,42,0,0,1.8,10.8,3.2,1.8,407,300
2022/04/05 19:06,1,2,6,6,0,5,2,0,6,49.5,26,0,0,0,5,4,3,1220,1160,327,0,188,60,42,0,0,1.8,10.8,3.19,1.8,407,300
2022/04/05 19:08,1,12,8,7,0,5,4,0.03,6,51.0,28,0,0,0,6,6,4,1199,1147,309,0,187,60,41,0,0,1.8,10.8,3.02,1.2,390,265
2022/04/05 19:10,1,12,8,8,0,7,5,0.04,8,51.0,30,0,0,0,6,6,4,1181,1121,304,0,183,59,41,0,0,1.8,10.8,2.92,1.2,390,265
2022/04/05 19:12,1,22,8,9,1,7,6,0.05,8,51.0,30,0,0,0,6,6,4,1181,1121,304,0,183,59,41,0,0,1.8,10.8,2.91,1.2,390,265
2022/04/05 19:14,1,22,7,8,0,7,8,0.06,8,52.5,30,0,0,0,6,6,5,1179,1105,296,0,182,59,41,0,0,1.8,10.8,2.8,1.2,390,265
2022/04/05 19:16,1,22,7,10,1,9,9,0.1,11,52.5,30,0,0,0,6,6,5,1178,1105,296,0,182,59,41,0,0,1.9,10.8,2.75,1.2,390,265
2022/04/05 19:18,1,22,13,22,1,16,17,0.1,11,53.5,30,2,0.06,0,6,6,6,1164,1066,293,0,176,59,41,0,0,1.9,10.8,2.63,1.2,390,265
2022/04/05 19:20,1,35,27,33,1,20,24,0.12,12,54.5,30,5,0.16,0,11,8,4,1154,1034,289,0,174,59,41,0,0,1.9,10.8,2.52,1.2,390,265
2022/04/05 19:22,2,47,27,49,3,29,32,0.31,17,54.5,32,10,0.36,0.0,11,8,6,1154,1038,289,0,174,59,41,0,0,1.9,10.8,2.51,1.2,390,265
2022/04/05 19:24,2,55,34,50,6,31,34,0.32,18,54.5,44,10,0.37,0,11,8,8,1153,1031,289,0,172,59,41,0,0,1.9,10.8,2.49,1.2,390,265
2022/04/05 19:26,2,55,40,52,6,30,33,0.32,18,54.5,44,10,0.65,0,11,8,7,1151,1027,285,0,171,58,41,0,0,1.9,10.9,2.44,1.2,390,265
2022/04/05 19:28,4,64,32,50,5,33,33,0.32,18,55.0,42,23,0.65,0.0,10,8,6,1151,1026,278,0,172,59,41,0,2,1.9,10.9,2.28,1.2,390,265
2022/04/05 19:30,10,73,34,55,16,34,37,0.58,20,55.5,52,23,0.65,-1,10,8,6,1129,1010,275,0,172,59,41,0,3,1.9,10.9,2.24,1.2,390,265
2022/04/05 19:32,11,76,73,68,16,43,46,0.58,20,55.5,51,26,1.04,1.3,14,12,4,1129,1010,270,0,172,59,41,0,3,1.9,10.9,2.2,1.2,390,265
2022/04/05 19:34,11,78,80,72,17,47,56,0.58,20,56.5,48,26,1.04,0,14,12,8,1129,998,263,0,174,59,41,0,5,1.9,10.9,2.12,1.2,390,265
2022/04/05 19:36,20,85,82,75,25,58,58,0.66,24,57.5,52,32,1.04,1.0,14,12,6,1124,1005,254,0,178,59,41,0,8,1.9,10.9,1.98,1.2,390,265
2022/04/05 19:38,20,85,82,76,28,59,59,0.66,24,58.5,52,32,1.04,0,14,12,6,1103,1005,249,0,178,59,41,0,11,1.9,10.8,1.94,1.2,390,265
2022/04/05 19:40,18,85,82,77,30,59,59,0.66,24,59.0,53,32,1.04,0,14,12,8,1102,1005,241,0,181,58,41,0,31,1.9,10.8,1.89,1.1,382,261
2022/04/05 19:42,18,85,85,78,30,61,62,0.67,24,59.0,52,32,1.04,0.1,17,12,8,1098,994,236,0,184,58,40,0,67,1.9,10.8,1.79,1.1,382,261
2022/04/05 19:44,28,85,85,76,34,60,63,0.8,26,59.0,52,38,1.04,2.0,17,12,7,1083,982,235,0,187,58,40,0,80,1.9,10.8,1.76,1.1,382,261
2022/04/05 19:46,28,85,85,76,34,60,63,0.8,26,58.5,54,38,1.04,0,17,12,7,1083,982,235,0,190,58,40,0,70,1.9,10.8,1.7,1.1,382,261
2022/04/05 19:48,30,81,80,75,30,61,61,0.8,26,58.5,54,38,1.04,0,17,11,7,1075,982,226,0,194,58,40,0,11,1.9,10.8,1.65,1.1,382,261
2022/04/05 19:50,23,81,85,75,25,57,61,0.68,23,58.5,54,38,1.04,0,18,15,7,1075,977,226,0,194,58,40,0,9,1.9,10.8,1.65,1.1,382,261
2022/04/05 19:52,32,90,89,77,33,61,61,0.75,26,57.5,56,41,1.04,2.7,18,15,8,1065,965,225,0,194,58,40,0,8,1.9,10.8,1.64,1.1,382,261
2022/04/05 19:54,43,95,89,73,43,60,56,0.91,30,59.0,58,41,1.04,0,29,17,8,1058,963,225,0,202,58,40,0,1,1.8,10.8,1.56,1.1,382,261
2022/04/05 19:56,47,97,92,77,50,61,55,0.99,32,59.5,59,41,1.04,0,33,25,10,1049,963,220,0,202,58,40,0,2,1.8,10.8,1.56,0.9,350,245
2022/04/05 19:58,47,97,92,78,48,63,55,0.99,32,60.0,58,41,1.04,0,33,25,8,1125,950,264,0,263,58,44,0,3,1.9,10.8,1.53,0.9,350,245
2022/04/05 20:00,54,97,91,81,54,64,57,1.14,33,61.5,58,34,1.04,0.2,33,25,7,1109,944,264,0,268,58,44,0,5,1.9,10.8,1.51,1.5,292,310
2022/04/05 20:02,55,97,88,80,57,64,56,1.17,36,61.5,60,30,1.04,0,32,23,7,1105,929,264,0,274,58,44,0,2,1.9,10.8,1.51,1.5,292,310
2022/04/05 20:04,55,97,84,79,54,64,56,1.17,36,61.5,60,30,0.85,-3,32,22,8,1105,929,264,0,271,58,44,0,2,1.9,10.8,1.5,1.5,292,310
2022/04/05 20:06,55,97,92,81,45,64,56,1.17,36,60.5,50,30,0.85,2.3,32,20,12,1073,892,262,0,279,58,44,0,2,1.9,10.8,1.5,1.1,292,310
2022/04/05 20:08,34,95,92,77,38,61,54,0.93,32,59.0,52,28,0.85,0,22,19,12,1069,892,265,0,281,58,44,0,0,1.9,10.8,1.46,1.1,292,310
2022/04/05 20:10,13,87,92,75,26,60,55,0.64,24,59.0,52,27,0.85,0,20,17,12,1056,871,262,0,284,58,44,0,1,1.9,10.8,1.49,1.1,292,310
2022/04/05 20:12,13,86,92,77,21,60,56,0.64,24,58.5,50,27,0.85,0,18,14,11,1038,848,257,0,285,58,44,0,0,1.9,10.8,1.51,1.1,292,310
2022/04/05 20:14,8,64,89,74,14,54,53,0.61,22,58.5,44,9,0.85,0,15,12,8,1025,834,257,1,286,58,44,0,0,1.9,10.8,1.52,1.1,292,310
2022/04/05 20:16,5,63,89,70,9,54,52,0.51,22,58.5,42,9,0.8,0,15,12,8,1023,828,257,1,286,58,44,0,0,1.9,10.8,1.54,1.1,292,310
2022/04/05 20:18,2,64,82,60,6,50,46,0.34,22,58.0,41,9,0.8,0,15,13,7,1012,811,254,1,286,58,44,0,0,1.9,10.8,1.58,1.1,292,310
2022/04/05 20:20,2,60,80,58,5,48,44,0.3,20,58.0,41,9,0.8,0,15,13,7,1008,807,251,2,285,58,44,0,0,1.9,10.8,1.6,1.1,292,310
2022/04/05 20:22,2,60,84,60,4,41,43,0.28,18,56.0,40,9,0.8,0,15,13,9,1002,797,250,2,285,58,44,0,0,1.9,10.8,1.61,1.1,292,310
2022/04/05 20:24,2,60,86,61,4,37,44,0.28,17,56.0,40,12,0.62,1.6,18,13,8,997,787,249,2,278,58,44,0,0,1.9,10.8,1.64,1.1,292,310
2022/04/05 20:26,2,60,86,63,4,37,44,0.25,16,56.0,42,12,0.62,0,18,13,8,989,772,245,2,276,58,44,0,0,1.9,10.8,1.69,1.1,292,310
2022/04/05 20:28,1,53,81,53,3,34,40,0.24,15,55.5,40,12,0.56,0,18,14,6,984,763,242,2,273,57,44,0,0,1.9,10.8,1.73,1.1,292,310
2022/04/05 20:30,1,53,81,59,3,34,40,0.23,15,55.5,39,12,0.56,1.4,18,14,6,982,758,240,2,269,57,44,0,0,1.9,10.8,1.74,1.1,292,310
2022/04/05 20:32,2,64,72,64,5,41,43,0.23,15,58.0,39,20,0.56,2.3,18,14,6,974,742,238,3,268,57,44,0,0,1.9,10.8,1.79,1.1,292,310
2022/04/05 20:34,2,64,72,65,4,40,38,0.21,15,58.0,37,20,0.56,0,18,14,6,970,733,235,3,267,57,44,0,0,1.9,10.8,1.84,0.9,286,305
2022/04/05 20:36,3,63,72,68,6,43,44,0.32,16,58.0,42,22,0.56,0.4,18,14,6,964,729,231,3,267,57,44,0,0,1.9,10.9,1.85,0.9,286,305
2022/04/05 20:38,3,63,69,67,6,40,44,0.32,16,57.0,45,23,0.42,0.1,18,14,6,963,726,231,4,267,57,44,0,0,1.9,10.8,1.88,0.9,286,305
2022/04/05 20:40,4,63,69,66,6,40,46,0.35,16,56.0,45,23,0.47,0,18,14,6,962,715,226,4,265,57,44,0,0,1.9,10.9,1.94,0.9,286,305
2022/04/05 20:42,4,65,74,72,8,50,48,0.37,20,56.5,46,23,0.5,-1,18,14,7,950,705,221,5,264,57,44,0,0,1.9,10.8,2.02,0.9,286,305
2022/04/05 20:44,5,64,79,69,8,59,52,0.44,24,57.5,45,23,0.5,0,18,14,8,943,697,215,6,267,57,44,0,0,1.9,10.9,2.09,0.9,286,305
2022/04/05 20:46,5,72,79,72,7,59,52,0.44,24,57.5,41,22,0.5,1.1,18,13,8,936,692,212,6,267,57,44,0,0,1.9,10.9,2.12,0.9,286,305
2022/04/05 20:48,4,63,77,71,7,58,51,0.44,24,57.5,40,16,0.5,0,17,14,7,932,684,205,7,268,57,44,0,0,1.9,10.9,2.21,0.9,286,305
2022/04/05 20:50,4,65,77,70,6,53,51,0.41,22,57.5,40,13,0.5,0,17,14,7,924,676,199,8,269,57,44,0,0,1.9,10.9,2.29,0.9,286,305
2022/04/05 20:52,2,64,71,61,4,46,46,0.34,20,56.0,39,13,0.5,0,17,14,7,916,669,194,9,270,57,44,0,0,1.9,10.9,2.37,0.9,286,305
2022/04/05 20:54,2,47,60,57,3,33,38,0.25,16,54.5,40,9,0.5,0,12,11,7,915,667,194,9,270,57,44,0,0,1.9,10.9,2.39,0.9,286,305
2022/04/05 20:56,2,62,57,59,3,33,34,0.26,15,56.0,41,24,0.59,5.7,12,11,5,915,645,181,11,269,56,44,0,0,1.9,10.8,2.66,0.7,267,299
2022/04/05 20:58,4,62,57,61,5,37,34,0.38,17,56.0,45,24,0.59,0,12,11,5,915,638,180,13,269,56,44,0,0,1.9,10.8,2.69,0.7,267,299
2022/04/05 21:00,5,62,36,58,9,46,31,0.45,17,56.0,48,24,0.59,0,11,9,5,1056,791,217,29,303,56,46,0,0,1.9,10.9,2.7,1.3,279,384
2022/04/05 21:02,7,65,64,70,11,51,40,0.53,20,56.0,48,24,0.62,0,16,12,5,1049,765,216,31,305,57,47,0,0,1.9,10.9,2.73,1.1,279,415
2022/04/05 21:04,7,65,65,73,12,55,47,0.53,20,56.0,49,22,0.7,1.3,16,12,5,1049,752,216,33,305,57,47,0,5,1.9,10.9,2.79,0.9,279,426
2022/04/05 21:06,12,75,71,74,13,54,48,0.54,20,56.0,49,36,0.85,1.5,16,12,6,1043,718,215,36,305,58,47,0,8,1.8,10.9,2.85,0.9,279,426
2022/04/05 21:08,14,75,71,72,15,50,48,0.56,18,56.0,52,36,0.85,-2,16,12,6,1025,714,210,36,305,58,47,0,16,1.8,10.9,2.87,0.9,279,426
2022/04/05 21:10,14,73,69,74,14,50,45,0.56,18,57.0,52,36,0.85,0.4,16,11,5,1020,691,210,38,306,58,47,0,16,1.8,10.9,2.93,0.9,279,426
2022/04/05 21:12,15,75,73,70,12,53,49,0.56,18,57.5,50,36,0.85,0,16,12,7,1025,683,210,40,306,58,47,0,9,1.8,10.9,3.05,0.9,279,426
2022/04/05 21:14,7,65,69,70,14,54,49,0.55,18,58.0,49,19,0.85,0,16,12,7,1019,660,210,43,307,59,47,0,7,1.9,10.9,3.13,0.9,279,426
2022/04/05 21:16,6,64,69,70,11,54,47,0.46,18,58.0,48,19,0.85,0,16,12,5,1000,641,208,43,307,58,47,0,5,1.8,10.9,3.14,0.9,279,426
2022/04/05 21:18,4,55,59,67,9,54,39,0.42,16,58.5,48,6,0.85,0,17,10,5,977,612,200,49,311,59,47,0,1,1.9,10.9,3.3,0.9,279,426
2022/04/05 21:20,3,47,43,64,6,57,39,0.4,16,58.5,42,6,0.85,0,17,10,5,966,601,200,53,311,58,47,0,1,1.8,10.9,3.39,0.9,279,426
2022/04/05 21:22,3,47,43,66,6,60,39,0.39,19,58.5,42,6,0.85,0,17,10,5,966,596,200,53,313,59,47,0,1,1.9,10.9,3.41,0.9,279,426
2022/04/05 21:24,2,46,36,62,4,55,32,0.29,19,57.5,42,5,0.85,0,14,12,5,958,583,200,56,317,58,47,0,0,1.8,10.9,3.49,0.9,279,426
2022/04/05 21:26,2,50,34,65,5,51,33,0.29,19,57.0,40,11,0.85,4.2,14,12,5,958,578,199,59,315,58,47,0,0,1.8,10.9,3.6,0.7,284,392
2022/04/05 21:28,3,40,34,61,6,41,33,0.35,14,57.0,46,11,0.85,0,14,12,5,957,571,199,59,316,58,47,0,0,1.8,10.9,3.6,0.7,284,392
2022/04/05 21:30,3,46,22,55,6,38,31,0.35,13,57.0,46,11,0.85,0,14,8,5,949,569,195,60,317,58,47,0,0,1.8,10.9,3.64,0.7,284,392
2022/04/05 21:32,3,46,21,52,4,34,28,0.35,13,56.0,40,11,0.85,0,14,8,4,942,560,192,62,317,58,47,0,0,1.8,10.9,3.66,0.7,284,392
2022/04/05 21:34,2,37,15,47,2,34,27,0.26,13,56.0,37,8,0.85,0,14,7,4,928,536,192,65,317,58,47,0,0,1.8,10.9,3.69,0.7,284,392
2022/04/05 21:36,1,28,12,39,2,28,20,0.19,12,54.5,36,2,0.85,0,14,7,4,942,536,192,66,317,58,47,0,0,1.8,10.9,3.73,0.7,284,392
2022/04/05 21:38,1,32,12,46,2,32,21,0.2,14,54.5,38,2,0.44,0,14,7,5,942,533,192,67,317,58,47,0,0,1.8,10.9,3.78,0.7,284,392
2022/04/05 21:40,2,37,3,30,3,28,11,0.2,14,56.5,38,3,0.44,0,8,6,4,942,520,190,70,315,59,46,0,0,1.8,10.9,3.9,0.7,284,392
2022/04/05 21:42,2,37,4,33,2,31,10,0.2,14,56.5,32,3,0.2,0,8,7,4,971,520,193,70,313,60,46,0,0,1.8,10.9,3.98,0.5,254,362
2022/04/05 21:44,1,31,4,24,1,22,9,0.07,10,56.5,34,3,0.2,0,8,7,4,976,520,193,70,312,60,46,0,0,1.8,10.9,4.01,0.5,254,362
2022/04/05 21:46,1,31,9,26,1,20,15,0.07,10,53.0,34,3,0.2,0,8,7,3,993,523,198,70,307,60,46,0,0,1.8,10.9,4.1,0.5,254,362
2022/04/05 21:48,1,24,9,24,0,19,14,0.07,10,52.5,32,1,0.2,0,8,7,3,1037,523,198,70,302,60,46,0,0,1.8,10.9,4.17,0.5,254,362
2022/04/05 21:50,1,22,7,20,1,12,13,0.08,8,52.5,34,1,0.2,0,8,6,3,1040,523,198,70,297,60,45,0,0,1.8,10.9,4.19,0.5,254,362
2022/04/05 21:52,1,22,7,20,1,12,13,0.08,8,52.5,34,1,0.2,0,8,6,3,1080,523,199,70,296,60,45,0,0,1.8,10.9,4.29,0.5,254,362
2022/04/05 21:54,1,22,5,18,1,14,9,0.08,8,53.0,34,1,0.2,0,8,6,3,1122,520,199,67,293,60,45,0,0,1.8,10.8,4.43,0.3,254,285
2022/04/05 21:56,1,22,4,20,1,15,10,0.08,8,55.0,32,1,0.2,0,10,5,3,1125,520,202,66,293,60,45,0,0,1.8,10.8,4.48,0.3,254,285
2022/04/05 21:58,1,22,4,19,1,15,10,0.07,8,55.0,34,1,0.15,0,10,5,3,1125,523,202,66,291,60,44,0,0,1.8,10.8,4.54,0.3,254,285
2022/04/05 22:00,1,22,5,15,1,10,7,0.05,8,55.0,34,1,0.08,0,10,5,3,1129,519,202,64,291,59,44,0,0,1.8,10.7,4.68,0.7,244,441
2022/04/05 22:02,1,22,4,9,0,6,5,0.06,8,53.5,34,0,0.08,0,8,6,3,1130,505,202,60,293,59,44,0,0,1.8,10.6,4.8,0.7,244,441
2022/04/05 22:04,1,22,4,14,1,11,4,0.07,9,53.0,34,0,0.08,0,8,6,3,1002,659,187,63,387,60,51,0,0,1.8,10.9,4.92,0.7,244,441
2022/04/05 22:06,1,22,3,15,0,11,4,0.07,9,53.0,29,0,0.08,0,8,6,3,1002,653,187,69,387,60,51,0,0,1.8,10.9,5.01,0.7,244,441
2022/04/05 22:08,1,12,2,14,0,11,4,0.07,9,52.0,31,0,0.08,0,8,4,5,948,605,181,70,385,60,51,0,0,1.8,10.9,5.13,0.7,244,441
2022/04/05 22:10,1,22,2,16,0,12,5,0.07,9,53.5,28,0,0.08,0,5,4,5,938,600,181,74,379,60,51,0,0,1.8,10.9,5.26,0.7,244,441
2022/04/05 22:12,1,22,2,18,0,14,5,0.09,10,53.5,28,0,0.05,0,8,4,5,938,600,181,73,378,60,51,0,0,1.8,10.9,5.36,0.7,244,441
2022/04/05 22:14,1,22,2,18,0,12,5,0.09,10,53.5,30,0,0.05,0,6,4,4,883,551,177,75,369,60,51,0,0,1.8,10.9,5.56,0.7,244,441
2022/04/05 22:16,1,22,2,17,0,14,5,0.09,10,53.5,28,0,0.05,0,6,4,5,883,551,177,74,357,58,52,0,0,1.8,10.9,5.66,0.5,244,353
2022/04/05 22:18,1,22,1,11,0,9,3,0.08,8,53.5,28,0,0.05,0,6,4,5,883,551,177,74,357,58,52,0,0,1.8,10.9,5.66,0.5,244,353
2022/04/05 22:20,1,24,4,13,0,10,5,0.06,9,53.5,30,0,0.05,0,7,7,5,826,525,165,70,341,52,51,0,0,1.8,10.9,5.95,0.3,206,222
